Location: *
(60.1759°S, 155.0663°W)
Time: 12:10:28
(UTC+00:00)

H-2A R/B - Pass Details

Date: 17 September 2019
Orbit: 501 x 543 km, 97.3° (Epoch: 19 October)

Event Time Altitude Azimuth Distance (km) Brightness Sun altitude
Rises 15:01:20 0° 33° (NNE) 2,717 6.6 -11.0°
Reaches altitude 10° 15:03:29 10° 37° (NE) 1,826 5.8 -10.7°
Maximum altitude 15:07:20 52° 113° (ESE) 694 3.8 -10.2°
Drops below altitude 10° 15:11:10 10° 189° (S) 1,825 5.5 -9.8°
Sets 15:13:19 0° 193° (SSW) 2,716 6.4 -9.5°
